[[{"header":{"parameterUnit":"m.s-1","parameterCategory":1,"la1":30.2991,"la2":30.254,"lo1":-89.0895,"lo2":-89.0444,"dy":0.0017,"dx":0.0017,"nx":28,"ny":28,"refTime":"2025-06-09T03:00:00:Z","depth":0,"parameterNumber":2,"parameterNumberName":"U-component_of_WINDS"},"data":[0,0,0,0,0,0,0,0,0,0,0,0,0,0,0,0,0,0,0,0,0,0,0,0,0,0,0,0,0,0,0,0,0,0,0,0,0,0,0,0,0,0,0,0,0,0,0,0,0,0,0,0,0,0,0,0,0,0,2.738,2.7382,0,2.7494,2.7495,2.7497,2.7508,2.7506,2.7505,2.7504,2.7621,2.7625,2.7629,0,0,0,0,0,0,0,0,0,0,0,0,0,2.7175,2.7179,2.738,2.7382,2.7383,2.7494,2.7495,2.7497,2.7508,2.7506,2.7505,2.7503,2.762,2.7625,2.763,0,0,0,0,0,0,0,0,0,0,0,0,0,2.7274,2.718,2.738,2.7402,2.7405,2.7493,2.7495,2.7497,2.7508,2.7506,2.7504,2.7503,2.7618,2.7624,2.7631,2.7705,0,0,2.765,2.7653,0,0,0,0,0,0,0,0,2.7268,2.7281,2.7397,2.7401,2.7404,2.7485,2.7466,2.7567,2.7508,2.7469,2.7504,2.7502,2.7577,2.7587,2.7612,2.7711,2.7716,2.765,2.7654,2.7657,2.7659,0,0,0,0,0,0,0,2.7261,2.7277,2.7425,2.7399,2.7403,2.7407,2.7419,2.7485,2.7532,2.7472,2.7473,2.7487,2.7579,2.7606,2.7615,2.7718,2.765,2.7656,2.766,2.7662,2.7886,2.7888,0,0,0,0,0,0,2.725,2.7271,2.7422,2.7429,2.733,2.7412,2.7425,2.7461,2.7531,2.754,2.7488,2.7487,2.7596,2.7608,2.7619,2.7713,2.7657,2.7663,2.7667,2.7884,2.7887,2.7889,0,0,0,0,0,0,2.7246,2.7264,2.7417,2.735,2.737,2.7417,2.7457,2.7464,2.7491,2.7543,2.7551,2.7507,2.7595,2.761,2.7684,2.7717,2.7666,2.7672,2.7882,2.7885,2.7888,2.7901,0,0,0,0,0,0,2.724,2.7262,2.729,2.7351,2.7373,2.748,2.7459,2.7467,2.7502,2.7501,2.7563,2.7572,2.7595,2.7675,2.7691,2.7725,2.7677,2.7879,2.7883,2.7887,2.7898,2.7904,2.791,0,0,0,0,0,2.7232,2.7289,2.7292,2.731,2.741,2.7482,2.7495,2.752,2.7504,2.7534,2.7568,2.757,2.7711,2.7682,2.77,2.7737,2.7877,2.7882,2.7887,2.7895,2.7903,2.7909,0,0,0,0,0,0,2.7231,2.7297,2.7301,2.7378,2.7424,2.7483,2.7521,2.7527,2.7579,2.7576,2.7606,2.762,2.7693,2.7722,2.7689,2.7815,2.7792,2.7801,2.7793,2.7801,2.7807,2.7798,2.7682,0,0,0,0,0,2.724,2.7292,2.7347,2.7411,2.7433,2.7473,2.7506,2.7521,2.757,2.759,2.7629,2.7676,2.7732,2.7768,2.7821,2.7902,2.7917,2.7936,2.7942,2.7947,2.7954,2.8001,2.8011,2.7905,2.7905,2.7905,0,0,2.7258,2.7301,2.7332,2.7411,2.7449,2.7504,2.749,2.7547,2.7589,2.7599,2.7672,2.7702,2.7757,2.7836,2.7872,2.7862,2.7987,2.7953,2.7956,2.7961,2.8007,2.8017,2.8026,2.7908,2.7908,2.7907,0,0,2.732,2.7357,2.7415,2.7453,2.751,2.7537,2.755,2.7609,2.763,2.7703,2.7713,2.7762,2.7856,2.7896,2.7929,2.8008,2.8013,2.8024,2.8056,2.8101,2.811,2.8117,2.8147,2.8158,2.8031,2.8032,2.8032,0,2.7336,2.7419,2.7444,2.7502,2.7538,2.7549,2.7609,2.7645,2.7716,2.7741,2.7729,2.7849,2.7887,2.7976,2.7995,2.8021,2.8039,2.8018,2.8106,2.8114,2.8122,2.8151,2.8162,2.8033,2.8033,2.8032,2.8032,0,2.7437,2.7494,2.7533,2.7603,2.7643,2.7701,2.7737,2.7774,2.7786,2.7815,2.789,2.7937,2.8001,2.8023,2.8035,2.8114,2.8107,2.81,2.8079,2.8133,2.8161,2.8172,2.8034,2.8034,2.8034,2.8033,0,0,2.7501,2.7585,2.7599,2.7632,2.7696,2.7741,2.7801,2.7864,2.7896,2.7945,2.7997,2.8077,2.8073,2.811,2.8127,2.8166,2.8229,2.8155,2.8157,2.8169,2.8321,2.8326,2.8339,2.8232,2.8234,2.8236,2.8317,0,2.7572,2.7678,2.7704,2.7795,2.785,2.7862,2.7914,2.796,2.7988,2.8039,2.807,2.8127,2.8115,2.8138,2.8178,2.8212,2.826,2.8207,2.8282,2.8284,2.8269,2.8353,2.8358,2.8433,2.8328,2.8329,2.8331,0,2.7669,2.7721,2.7818,2.7877,2.7901,2.7947,2.8008,2.8056,2.8108,2.8126,2.8168,2.8182,2.8246,2.8221,2.831,2.8274,2.8306,2.8328,2.8332,2.8341,2.8311,2.8366,2.8457,2.8468,2.8348,2.8346,2.8345,0,2.7708,2.7803,2.7873,2.7901,2.7971,2.8004,2.8034,2.8085,2.8122,2.8175,2.82,2.826,2.8293,2.8339,2.8369,2.8348,2.8458,2.8434,2.8475,2.8475,2.8499,2.8497,2.8598,2.8517,2.8517,2.8517,2.8516,0,2.7786,2.7845,2.7893,2.7936,2.8004,2.8033,2.8099,2.813,2.8176,2.8227,2.824,2.8288,2.8324,2.8377,2.8401,2.8473,2.8487,2.8504,2.851,2.8504,2.8502,2.8527,2.8523,2.852,2.8519,2.8518,2.8518,0,2.7842,2.7876,2.7954,2.8014,2.8031,2.8078,2.813,2.8174,2.8202,2.8267,2.8284,2.8329,2.8392,2.8427,2.8506,2.8522,2.8603,2.8605,2.8585,2.8588,2.8628,2.8624,2.8749,2.8768,2.8673,2.8674,2.8674,0,2.789,2.7936,2.8001,2.8036,2.8068,2.8124,2.8162,2.8192,2.8231,2.8296,2.8332,2.8396,2.8449,2.855,2.8591,2.8652,2.8657,2.8696,2.8666,2.8659,2.8659,2.8657,2.8663,2.8702,2.8703,2.8703,2.8704,0,2.7972,2.7987,2.804,2.8101,2.8146,2.8195,2.8243,2.8271,2.831,2.8353,2.8418,2.8459,2.8541,2.8605,2.8669,2.8702,2.871,2.8713,2.8726,2.8721,2.8708,2.8717,2.8601,2.871,2.871,2.8709,2.8709,2.8708,2.8027,2.8069,2.8122,2.8182,2.8222,2.8267,2.8312,2.8346,2.8401,2.8469,2.8484,2.8553,2.8607,2.8694,2.8729,2.8784,2.8776,2.8795,2.88,2.8804,2.8807,2.8698,2.8796,2.8795,2.8795,2.8795,2.8795,0,2.8111,2.8146,2.8201,2.8269,2.8316,2.8319,2.8374,2.8414,2.8474,2.8523,2.8575,2.865,2.8713,2.8759,2.8823,2.8858,2.8864,2.8874,2.8873,2.8881,2.8809,2.8792,2.8869,2.8869,2.8869,2.8869,2.8869,2.8869,2.8161,2.8233,2.8255,2.8348,2.8382,2.845,2.8481,2.8523,2.8563,2.8646,2.8698,2.8728,2.8776,2.8844,2.8902,2.8914,2.8938,2.8948,2.8961,2.8893,2.8885,2.8878,2.8862,2.8953,2.8953,2.9028,2.9029,2.9029]},{"header":{"parameterUnit":"m.s-1","parameterCategory":1,"la1":30.2991,"la2":30.254,"lo1":-89.0895,"lo2":-89.0444,"dy":0.0017,"dx":0.0017,"nx":28,"ny":28,"refTime":"2025-06-09T03:00:00:Z","depth":0,"parameterNumber":3,"parameterNumberName":"V-component_of_WINDS"},"data":[0,0,0,0,0,0,0,0,0,0,0,0,0,0,0,0,0,0,0,0,0,0,0,0,0,0,0,0,0,0,0,0,0,0,0,0,0,0,0,0,0,0,0,0,0,0,0,0,0,0,0,0,0,0,0,0,0,0,-1.5067,-1.5067,0,-1.5053,-1.5053,-1.5053,-1.5099,-1.51,-1.5101,-1.5103,-1.5083,-1.5081,-1.5079,0,0,0,0,0,0,0,0,0,0,0,0,0,-1.5129,-1.5128,-1.5067,-1.5067,-1.5066,-1.5053,-1.5053,-1.5053,-1.5098,-1.51,-1.5102,-1.5103,-1.5083,-1.5081,-1.5079,0,0,0,0,0,0,0,0,0,0,0,0,0,-1.5107,-1.5127,-1.5067,-1.5088,-1.5089,-1.5053,-1.5053,-1.5053,-1.5098,-1.51,-1.5102,-1.5104,-1.5084,-1.5081,-1.5079,-1.502,0,0,-1.507,-1.5069,0,0,0,0,0,0,0,0,-1.5108,-1.5105,-1.5085,-1.5086,-1.5088,-1.508,-1.5068,-1.5041,-1.5097,-1.5094,-1.5103,-1.5105,-1.508,-1.5077,-1.507,-1.5019,-1.5018,-1.507,-1.5068,-1.5067,-1.5066,0,0,0,0,0,0,0,-1.511,-1.5106,-1.5061,-1.5084,-1.5086,-1.5097,-1.5096,-1.5063,-1.5075,-1.5095,-1.5098,-1.5096,-1.5081,-1.5073,-1.507,-1.5018,-1.507,-1.5068,-1.5066,-1.5065,-1.492,-1.4918,0,0,0,0,0,0,-1.5109,-1.5107,-1.5062,-1.5061,-1.5104,-1.5094,-1.5093,-1.508,-1.5076,-1.5077,-1.5095,-1.5098,-1.5076,-1.5073,-1.5069,-1.5002,-1.5067,-1.5065,-1.5063,-1.4923,-1.492,-1.4918,0,0,0,0,0,0,-1.5111,-1.5105,-1.5062,-1.5085,-1.508,-1.5091,-1.5076,-1.5079,-1.5071,-1.5076,-1.5078,-1.5084,-1.5078,-1.5073,-1.5033,-1.5002,-1.5063,-1.5061,-1.4925,-1.4922,-1.4919,-1.4865,0,0,0,0,0,0,-1.5112,-1.5105,-1.5083,-1.5084,-1.5079,-1.5026,-1.5074,-1.5077,-1.5066,-1.5071,-1.5066,-1.5067,-1.5079,-1.5037,-1.503,-1.4999,-1.5059,-1.4928,-1.4924,-1.492,-1.487,-1.4861,-1.4853,0,0,0,0,0,-1.5114,-1.5067,-1.5082,-1.5076,-1.5052,-1.5025,-1.5021,-1.5038,-1.5064,-1.5042,-1.5046,-1.5067,-1.5007,-1.5032,-1.5025,-1.4993,-1.493,-1.4925,-1.492,-1.4874,-1.4862,-1.4853,0,0,0,0,0,0,-1.5059,-1.5067,-1.5084,-1.5035,-1.5029,-1.5032,-1.5005,-1.5025,-1.5009,-1.5014,-1.5034,-1.5032,-1.4988,-1.4987,-1.5015,-1.4937,-1.4973,-1.4966,-1.494,-1.4929,-1.4921,-1.4922,-1.5057,0,0,0,0,0,-1.5042,-1.502,-1.5028,-1.4984,-1.4981,-1.4993,-1.4982,-1.4996,-1.4989,-1.4986,-1.4987,-1.4978,-1.4958,-1.4943,-1.4924,-1.487,-1.487,-1.4845,-1.4836,-1.4829,-1.4823,-1.4796,-1.4786,-1.4901,-1.4901,-1.4902,0,0,-1.5004,-1.5006,-1.4991,-1.4973,-1.497,-1.4947,-1.4991,-1.4963,-1.4946,-1.4981,-1.4944,-1.4945,-1.4937,-1.489,-1.4869,-1.4887,-1.4791,-1.4823,-1.4817,-1.4815,-1.479,-1.4779,-1.4769,-1.4898,-1.4899,-1.4899,0,0,-1.4925,-1.4924,-1.4889,-1.4886,-1.4882,-1.4892,-1.4883,-1.4884,-1.4887,-1.485,-1.4877,-1.4857,-1.482,-1.4814,-1.4806,-1.4729,-1.4749,-1.4722,-1.4677,-1.4651,-1.4642,-1.4634,-1.4607,-1.4597,-1.4716,-1.4716,-1.4716,0,-1.4879,-1.4846,-1.4868,-1.484,-1.4832,-1.4866,-1.4831,-1.4826,-1.4815,-1.4809,-1.4829,-1.4787,-1.4783,-1.4737,-1.4719,-1.4711,-1.4702,-1.4722,-1.4642,-1.4634,-1.4626,-1.4601,-1.4591,-1.4713,-1.4713,-1.4714,-1.4714,0,-1.479,-1.4767,-1.4739,-1.4732,-1.472,-1.4688,-1.4705,-1.4691,-1.4707,-1.4714,-1.4677,-1.4676,-1.4658,-1.4648,-1.4661,-1.4604,-1.4616,-1.4639,-1.4674,-1.4612,-1.4589,-1.4579,-1.4708,-1.471,-1.471,-1.4711,0,0,-1.4673,-1.4681,-1.467,-1.4668,-1.4668,-1.465,-1.462,-1.4606,-1.4594,-1.4586,-1.4562,-1.4533,-1.4555,-1.4546,-1.456,-1.4537,-1.4478,-1.4563,-1.4563,-1.4548,-1.4416,-1.4399,-1.4387,-1.4492,-1.449,-1.4489,-1.4417,0,-1.4596,-1.4548,-1.4568,-1.4517,-1.4497,-1.4532,-1.4506,-1.4503,-1.451,-1.4493,-1.45,-1.4479,-1.451,-1.4505,-1.4484,-1.4489,-1.4452,-1.4495,-1.4469,-1.4468,-1.447,-1.4375,-1.4356,-1.4288,-1.4408,-1.4407,-1.4405,0,-1.4499,-1.4491,-1.4439,-1.4446,-1.4438,-1.4415,-1.4405,-1.4389,-1.4386,-1.4393,-1.4385,-1.4405,-1.4376,-1.4413,-1.4375,-1.4404,-1.4395,-1.4396,-1.4394,-1.4392,-1.4432,-1.437,-1.4267,-1.4257,-1.4391,-1.4392,-1.4393,0,-1.4419,-1.4395,-1.4362,-1.4359,-1.4365,-1.4349,-1.435,-1.4351,-1.4342,-1.4333,-1.4327,-1.4314,-1.4306,-1.4296,-1.4311,-1.4337,-1.4271,-1.4309,-1.4275,-1.4275,-1.4259,-1.4259,-1.4152,-1.4253,-1.4253,-1.4253,-1.4253,0,-1.4331,-1.4298,-1.4327,-1.4306,-1.4271,-1.4295,-1.4259,-1.4265,-1.4265,-1.4246,-1.4274,-1.4255,-1.4277,-1.426,-1.4272,-1.4239,-1.4235,-1.4239,-1.4243,-1.4237,-1.4236,-1.423,-1.4235,-1.4251,-1.4251,-1.4252,-1.4252,0,-1.4236,-1.4254,-1.422,-1.4231,-1.4233,-1.4206,-1.4215,-1.4196,-1.4206,-1.4182,-1.4177,-1.4193,-1.4175,-1.419,-1.4171,-1.418,-1.4136,-1.4146,-1.4137,-1.414,-1.4106,-1.4109,-1.3992,-1.3978,-1.4087,-1.4086,-1.4085,0,-1.4178,-1.4154,-1.4164,-1.4154,-1.4155,-1.4139,-1.4131,-1.4154,-1.4145,-1.4143,-1.4124,-1.411,-1.4099,-1.4069,-1.4077,-1.4064,-1.4074,-1.4034,-1.4072,-1.4068,-1.4074,-1.4076,-1.4074,-1.4026,-1.4024,-1.4023,-1.4022,0,-1.4074,-1.4085,-1.4074,-1.4067,-1.4057,-1.4052,-1.4048,-1.4039,-1.4063,-1.4051,-1.4035,-1.4027,-1.4011,-1.3996,-1.3986,-1.3987,-1.4008,-1.4011,-1.4003,-1.3996,-1.3992,-1.3995,-1.4117,-1.4013,-1.4014,-1.4015,-1.4015,-1.4016,-1.3996,-1.3978,-1.3983,-1.397,-1.3971,-1.3968,-1.3952,-1.3962,-1.3949,-1.3939,-1.3954,-1.3934,-1.3935,-1.3925,-1.3923,-1.3908,-1.3924,-1.3912,-1.3908,-1.3905,-1.3901,-1.3996,-1.3906,-1.3906,-1.3906,-1.3906,-1.3907,0,-1.3894,-1.39,-1.3888,-1.3885,-1.3875,-1.39,-1.3898,-1.3888,-1.3871,-1.3871,-1.3861,-1.3844,-1.383,-1.384,-1.3828,-1.3814,-1.3824,-1.381,-1.3811,-1.3811,-1.3886,-1.3895,-1.3803,-1.3803,-1.3803,-1.3803,-1.3803,-1.3803,-1.384,-1.3811,-1.3823,-1.3795,-1.3801,-1.3784,-1.3781,-1.3779,-1.3779,-1.3759,-1.3749,-1.3757,-1.3761,-1.375,-1.3739,-1.3743,-1.3737,-1.372,-1.3726,-1.3796,-1.3806,-1.3815,-1.3824,-1.3718,-1.3718,-1.3653,-1.3653,-1.3652]}]]